Temp
-10 -11 -10 -11 -11 -10 -10 -10 -10 -10 -10 -10 -10 -10 -10 -10 -10 -10 -10 -10 -10 -10 -10 -10 -9 -9 -9 -9 -9 -9 -9 -9 -9 -9 -9 -9 -9 -9 -9 -9 -9 -9 -9
-10 -10 -11 -11 -11 -11 -10 -10 -10 -10 -10 -10 -10 -10 -10 -10 -9 -9 -10 -10 -10 -10 -10 -10 -10 -10 -9 -10 -10 -9 -10 -9 -9 -9 -9 -9 -9 -9 -9 -9 -9 -9 -9
-11 -11 -11 -10 -10 -10 -10 -10 -10 -10 -10 -10 -10 -10 -10 -10 -10 -10 -10 -10 -10 -9 -9 -9 -9 -9 -9 -9 -10 -10 -10 -10 -10 -9 -10 -9 -9 -9 -9 -9 -9 -9 -9
-11 -11 -11 -10 -10 -10 -10 -10 -10 -10 -9 -10 -10 -10 -10 -10 -10 -10 -10 -10 -10 -10 -10 -10 -10 -10 -10 -10 -10 -10 -10 -10 -9 -9 -9 -9 -10 -10 -10 -10 -10 -9 -9
-11 -11 -11 -11 -10 -10 -10 -10 -10 -10 -10 -10 -10 -10 -10 -10 -10 -10 -10 -10 -10 -10 -10 -10 -10 -10 -10 -10 -10 -10 -10 -10 -9 -9 -9 -9 -9 -9 -9 -10 -10 -10 -10
-11 -11 -10 -10 -10 -10 -10 -10 -10 -10 -10 -10 -10 -10 -10 -10 -10 -10 -11 -10 -10 -10 -10 -10 -10 -10 -10 -10 -10 -10 -10 -10 -10 -10 -10 -10 -10 -10 -10 -10 -10 -10 -10
-10 -10 -10 -10 -10 -10 -10 -10 -10 -10 -10 -10 -10 -10 -10 -10 -10 -10 -10 -11 -11 -11 -11 -11 -11 -11 -11 -11 -11 -11 -11 -11 -11 -11 -10 -10 -10 -10 -10 -10 -10 -11 -11
-10 -10 -10 -10 -10 -10 -10 -10 -10 -10 -10 -10 -11 -11 -11 -11 -11 -11 -11 -11 -11 -11 -11 -11 -11 -11 -11 -11 -11 -11 -11 -12 -12 -12 -11 -11 -11 -10 -10 -10 -11 -11 -11
-11 -10 -10 -10 -10 -10 -10 -10 -10 -10 -11 -11 -11 -11 -11 -11 -11 -11 -11 -11 -11 -11 -11 -11 -11 -11 -11 -12 -12 -12 -12 -12 -12 -12 -12 -12 -11 -11 -11 -11 -11 -11 -12
-10 -10 -10 -10 -11 -11 -11 -11 -11 -11 -11 -11 -11 -11 -11 -11 -11 -11 -11 -11 -11 -11 -11 -11 -11 -12 -12 -12 -12 -12 -12 -12 -12 -12 -12 -12 -12 -12 -12 -11 -11 -12 -12
-11 -10 -10 -10 -11 -11 -11 -11 -11 -11 -11 -11 -11 -11 -11 -11 -11 -11 -11 -11 -11 -11 -11 -11 -11 -12 -12 -12 -12 -12 -12 -12 -12 -12 -12 -12 -12 -12 -12 -12 -11 -12 -12
-11 -11 -11 -11 -11 -11 -11 -11 -11 -11 -11 -11 -11 -11 -11 -11 -11 -11 -11 -11 -11 -11 -11 -11 -11 -11 -11 -12 -12 -12 -12 -12 -13 -13 -13 -12 -12 -12 -13 -12 -12 -12 -12
-11 -11 -11 -11 -11 -11 -11 -11 -11 -11 -11 -11 -11 -11 -11 -11 -11 -11 -11 -11 -11 -11 -11 -11 -11 -11 -12 -11 -12 -12 -12 -11 -12 -12 -13 -12 -12 -12 -13 -13 -12 -12 -13
-11 -11 -11 -11 -11 -11 -11 -11 -11 -11 -11 -11 -11 -11 -11 -11 -11 -11 -11 -11 -11 -11 -11 -11 -12 -12 -12 -12 -12 -12 -11 -11 -11 -12 -12 -12 -12 -12 -13 -13 -13 -13 -13
-11 -11 -11 -11 -11 -11 -11 -11 -11 -11 -11 -11 -11 -11 -11 -11 -11 -11 -11 -11 -11 -11 -11 -11 -12 -12 -12 -12 -12 -12 -12 -12 -11 -11 -11 -12 -12 -13 -13 -13 -13 -13 -13
-11 -11 -11 -11 -11 -11 -11 -10 -11 -11 -11 -11 -11 -12 -12 -12 -12 -12 -12 -12 -12 -12 -12 -12 -12 -12 -12 -12 -12 -12 -12 -12 -12 -12 -12 -12 -12 -13 -13 -13 -13 -13 -13
-11 -11 -11 -10 -11 -11 -11 -11 -11 -11 -11 -12 -12 -12 -12 -12 -12 -12 -12 -12 -12 -12 -12 -12 -12 -12 -13 -13 -12 -12 -12 -12 -12 -13 -13 -12 -12 -12 -12 -13 -13 -13 -13
-11 -11 -11 -11 -11 -11 -11 -11 -11 -12 -12 -12 -12 -12 -12 -12 -12 -12 -12 -13 -13 -13 -13 -13 -12 -13 -13 -13 -13 -13 -13 -13 -13 -13 -13 -13 -13 -13 -12 -12 -13 -13 -13
-11 -11 -11 -11 -11 -11 -11 -12 -12 -12 -12 -12 -12 -12 -13 -13 -13 -13 -13 -13 -13 -13 -13 -13 -14 -13 -14 -13 -14 -14 -14 -14 -14 -14 -14 -14 -13 -13 -13 -12 -12 -13 -13
-11 -11 -11 -11 -11 -11 -12 -12 -12 -12 -12 -12 -13 -13 -13 -13 -13 -13 -14 -14 -14 -14 -14 -14 -14 -14 -14 -14 -14 -14 -14 -14 -15 -14 -15 -15 -14 -14 -14 -13 -13 -13 -13
-11 -11 -12 -12 -12 -12 -12 -12 -12 -12 -12 -13 -13 -13 -13 -13 -13 -14 -14 -14 -14 -14 -14 -15 -15 -15 -15 -15 -15 -15 -16 -16 -16 -16 -15 -15 -15 -15 -14 -14 -14 -13 -13
-12 -12 -12 -12 -12 -12 -13 -13 -13 -13 -13 -14 -14 -13 -14 -14 -15 -15 -15 -15 -15 -15 -15 -16 -16 -16 -16 -17 -16 -17 -17 -17 -17 -17 -17 -17 -16 -16 -15 -15 -14 -14 -13
-12 -12 -12 -12 -13 -13 -13 -13 -14 -14 -14 -14 -14 -14 -15 -15 -15 -15 -15 -15 -16 -16 -16 -17 -17 -18 -18 -18 -18 -17 -17 -17 -17 -17 -17 -17 -17 -17 -16 -16 -15 -14 -14
-13 -13 -13 -13 -13 -13 -14 -14 -15 -15 -15 -15 -15 -16 -16 -16 -15 -16 -16 -16 -16 -17 -17 -18 -18 -18 -18 -18 -19 -19 -18 -18 -18 -17 -17 -17 -17 -17 -17 -16 -16 -16 -15
-13 -13 -13 -13 -14 -14 -15 -15 -15 -15 -15 -16 -16 -16 -16 -16 -16 -16 -17 -17 -18 -19 -19 -19 -19 -19 -19 -19 -19 -19 -19 -19 -19 -18 -17 -17 -17 -17 -17 -17 -17 -16 -16
-13 -13 -14 -14 -15 -15 -16 -16 -16 -16 -16 -17 -17 -17 -17 -17 -17 -17 -18 -19 -19 -19 -19 -20 -20 -20 -20 -20 -20 -20 -19 -19 -19 -19 -19 -19 -18 -19 -19 -18 -18 -17 -16
Height
5860 5860 5860 5860 5859 5858 5857 5855 5855 5854 5853 5851 5850 5849 5848 5847 5847 5847 5846 5846 5846 5845 5845 5844 5844 5844 5843 5842 5841 5840 5839 5837 5835 5833 5832 5830 5828 5826 5823 5822 5820 5817 5815
5860 5860 5858 5857 5858 5857 5856 5854 5853 5853 5853 5851 5851 5850 5848 5847 5847 5846 5845 5845 5844 5843 5843 5842 5841 5840 5840 5839 5837 5836 5835 5833 5831 5830 5828 5826 5825 5822 5820 5818 5816 5815 5812
5858 5857 5855 5855 5855 5855 5854 5853 5852 5851 5850 5850 5849 5848 5848 5846 5846 5846 5845 5843 5843 5841 5840 5839 5837 5837 5837 5835 5834 5832 5831 5829 5828 5826 5825 5823 5821 5819 5818 5816 5814 5811 5809
5856 5855 5854 5854 5853 5851 5851 5851 5850 5850 5848 5848 5847 5846 5846 5845 5845 5843 5842 5841 5840 5839 5838 5837 5836 5834 5833 5832 5831 5829 5828 5826 5824 5823 5822 5820 5818 5816 5814 5812 5810 5808 5806
5852 5853 5853 5851 5851 5850 5849 5848 5848 5846 5846 5845 5844 5843 5843 5842 5842 5840 5839 5838 5837 5835 5834 5833 5832 5831 5830 5828 5827 5825 5824 5822 5820 5819 5818 5815 5815 5812 5810 5808 5806 5804 5803
5851 5849 5848 5848 5847 5847 5846 5846 5845 5843 5843 5841 5840 5840 5839 5839 5838 5837 5835 5834 5834 5832 5831 5829 5828 5827 5826 5824 5823 5821 5819 5818 5816 5814 5813 5812 5809 5808 5806 5804 5802 5800 5799
5849 5847 5846 5845 5844 5843 5842 5842 5841 5840 5838 5837 5836 5836 5835 5834 5833 5832 5831 5830 5829 5828 5827 5826 5825 5823 5821 5820 5818 5816 5815 5813 5811 5809 5808 5808 5804 5804 5802 5800 5798 5796 5795
5845 5844 5843 5842 5841 5840 5839 5838 5836 5835 5834 5834 5833 5832 5831 5830 5829 5828 5827 5827 5824 5824 5823 5822 5821 5819 5817 5816 5814 5813 5811 5809 5807 5804 5803 5802 5800 5799 5797 5796 5794 5792 5791
5843 5841 5840 5839 5837 5836 5835 5834 5832 5831 5830 5829 5828 5827 5826 5825 5824 5824 5822 5821 5821 5820 5818 5817 5816 5815 5813 5811 5809 5808 5806 5804 5802 5799 5797 5798 5795 5794 5793 5791 5789 5788 5787
5840 5838 5836 5835 5834 5832 5831 5829 5828 5828 5826 5825 5824 5823 5822 5821 5819 5818 5817 5816 5815 5815 5813 5812 5810 5809 5808 5805 5804 5803 5801 5798 5797 5795 5793 5793 5790 5789 5788 5787 5785 5784 5783
5835 5834 5833 5831 5829 5828 5827 5827 5826 5824 5823 5822 5820 5819 5817 5816 5814 5812 5811 5810 5809 5809 5808 5806 5804 5802 5801 5800 5798 5796 5795 5793 5792 5790 5788 5787 5785 5784 5783 5782 5781 5779 5778
5830 5829 5828 5827 5826 5824 5823 5822 5821 5820 5819 5818 5816 5815 5813 5811 5809 5807 5806 5805 5803 5802 5801 5800 5798 5796 5794 5793 5791 5788 5788 5790 5783 5779 5778 5781 5780 5779 5778 5778 5777 5776 5774
5826 5825 5824 5823 5821 5820 5818 5818 5817 5816 5815 5814 5812 5810 5808 5806 5805 5803 5801 5799 5798 5797 5795 5794 5792 5791 5789 5786 5784 5781 5780 5782 5773 5748 5758 5774 5776 5773 5772 5772 5772 5771 5770
5821 5819 5818 5817 5816 5816 5814 5813 5812 5811 5810 5808 5807 5805 5803 5801 5799 5797 5795 5793 5791 5789 5787 5784 5783 5781 5780 5779 5776 5775 5771 5773 5771 5767 5768 5768 5769 5768 5766 5766 5765 5766 5766
5818 5817 5816 5814 5813 5811 5810 5809 5807 5806 5804 5802 5800 5798 5797 5795 5792 5790 5788 5785 5783 5780 5777 5775 5773 5771 5769 5767 5766 5765 5763 5761 5762 5763 5762 5759 5760 5761 5759 5759 5759 5759 5759
5813 5812 5810 5809 5808 5806 5804 5803 5801 5799 5797 5795 5794 5791 5788 5786 5784 5781 5779 5776 5774 5770 5767 5764 5761 5760 5758 5756 5754 5752 5751 5750 5750 5750 5751 5751 5749 5749 5749 5749 5750 5750 5751
5807 5806 5804 5803 5802 5800 5798 5796 5794 5792 5790 5788 5786 5783 5780 5776 5773 5770 5767 5764 5760 5758 5755 5752 5748 5745 5742 5741 5741 5740 5738 5736 5736 5736 5737 5738 5738 5738 5740 5740 5740 5741 5742
5800 5799 5798 5797 5795 5793 5791 5789 5787 5784 5782 5779 5777 5773 5770 5766 5763 5759 5755 5751 5747 5744 5741 5737 5734 5731 5728 5725 5724 5724 5724 5722 5721 5720 5722 5724 5725 5724 5727 5729 5731 5731 5733
5794 5792 5791 5790 5788 5786 5784 5781 5779 5776 5773 5770 5766 5763 5759 5756 5751 5747 5743 5738 5733 5728 5724 5721 5717 5714 5712 5710 5708 5706 5705 5703 5703 5704 5706 5707 5708 5710 5711 5716 5717 5719 5716
5787 5785 5784 5782 5780 5778 5776 5773 5770 5767 5763 5759 5755 5751 5746 5741 5737 5732 5727 5722 5717 5711 5707 5703 5700 5695 5692 5692 5691 5692 5689 5686 5683 5685 5687 5690 5693 5694 5698 5700 5705 5706 5705
5779 5777 5775 5773 5771 5769 5766 5763 5759 5755 5751 5747 5742 5738 5733 5728 5722 5717 5712 5707 5702 5697 5693 5688 5684 5679 5674 5671 5671 5671 5669 5668 5665 5666 5666 5668 5673 5675 5682 5682 5686 5690 5690
5771 5769 5767 5765 5762 5759 5756 5752 5748 5744 5739 5734 5730 5725 5719 5714 5709 5704 5699 5693 5687 5681 5676 5671 5668 5664 5658 5653 5652 5651 5653 5654 5650 5648 5649 5648 5651 5655 5660 5662 5665 5670 5676
5763 5761 5759 5756 5752 5748 5745 5740 5736 5731 5726 5722 5716 5710 5705 5700 5695 5691 5685 5679 5673 5668 5663 5655 5651 5648 5645 5640 5634 5631 5632 5632 5634 5636 5634 5632 5631 5634 5638 5643 5646 5651 5657
5754 5751 5748 5745 5740 5736 5732 5728 5723 5719 5714 5708 5702 5697 5692 5687 5681 5676 5670 5664 5658 5653 5648 5642 5637 5632 5629 5626 5621 5616 5612 5609 5607 5616 5619 5616 5615 5613 5615 5622 5626 5630 5636
5743 5739 5736 5733 5729 5724 5720 5716 5711 5706 5701 5695 5690 5684 5680 5673 5667 5661 5654 5649 5643 5638 5633 5628 5622 5617 5614 5611 5607 5604 5599 5593 5587 5585 5594 5595 5595 5595 5596 5595 5602 5608 5613
5731 5727 5723 5720 5717 5712 5708 5703 5699 5693 5688 5683 5678 5673 5667 5660 5654 5648 5640 5634 5628 5623 5617 5611 5607 5603 5600 5596 5592 5588 5584 5580 5574 5569 5566 5569 5572 5575 5575 5575 5576 5580 5588
Wind_Speed
17 16 17 17 14 13 12 11 11 9 9 9 9 8 8 8 7 8 10 11 13 14 15 16 17 19 21 22 23 24 25 26 27 28 29 29 29 30 29 27 24 21 21
19 18 20 19 16 15 15 13 13 14 14 13 11 11 10 8 9 9 9 11 14 16 17 19 19 21 23 24 25 27 28 29 29 28 28 27 25 23 22 23 23 21 20
20 23 21 20 16 16 15 14 15 16 16 17 17 17 17 17 15 13 13 13 13 14 16 18 19 20 22 22 23 23 23 24 24 23 22 23 25 23 23 22 22 22 21
22 22 23 21 18 18 17 17 17 17 18 19 19 19 19 19 20 20 20 19 18 18 18 19 19 20 21 22 22 23 24 24 24 25 24 24 23 23 23 23 23 23 23
24 24 26 23 21 20 20 19 19 19 19 20 21 22 22 22 22 22 22 22 23 23 23 22 22 23 23 24 25 25 25 27 27 26 25 25 23 23 24 24 24 23 23
24 26 27 27 26 24 21 21 22 22 21 22 23 25 25 25 24 24 24 24 24 24 25 26 27 28 28 28 27 26 26 28 30 30 26 24 25 23 24 25 24 23 22
26 27 28 28 28 28 27 25 23 23 23 24 25 25 26 26 26 27 27 27 27 27 28 28 29 30 31 31 31 31 29 29 30 30 28 22 25 25 23 24 24 22 21
26 27 28 27 25 24 25 25 25 25 24 26 27 28 30 31 31 31 30 30 31 31 31 31 31 32 32 33 32 33 32 31 31 30 28 23 23 23 22 23 23 21 20
26 27 27 24 23 22 23 23 22 23 24 25 25 26 27 29 31 32 32 33 33 33 34 35 34 34 35 35 33 30 31 33 33 30 27 23 22 21 22 22 22 21 20
27 27 24 24 23 23 23 23 23 24 25 27 27 27 27 28 29 31 32 33 32 32 33 34 35 36 36 37 35 36 37 34 31 29 29 27 29 27 27 24 22 21 21
25 25 24 24 24 24 24 24 23 24 25 26 28 29 29 29 30 31 31 32 32 32 33 35 35 36 36 34 36 36 36 33 30 28 27 27 27 26 25 26 25 23 22
26 26 26 27 27 26 24 24 24 24 25 27 28 30 30 30 30 30 30 31 32 33 33 34 35 36 39 38 38 40 38 34 34 33 24 23 25 27 26 26 27 26 24
27 27 28 28 28 27 25 25 25 27 29 30 30 31 31 32 32 32 32 32 34 36 38 38 39 39 40 40 42 44 42 39 41 44 28 31 27 29 30 30 28 25 27
25 26 28 29 29 29 28 29 30 31 30 30 31 31 32 33 36 37 39 41 43 45 46 47 47 44 44 44 45 45 46 43 43 42 38 38 35 31 32 32 34 31 26
26 27 28 28 29 29 31 32 33 35 36 36 36 37 37 38 40 42 43 44 46 48 51 52 54 54 54 53 50 49 49 50 49 46 44 44 40 37 36 34 35 35 27
28 28 28 29 32 33 33 35 36 37 37 38 40 41 43 45 47 47 47 48 49 53 55 57 58 59 60 59 59 58 55 52 51 50 48 46 46 43 43 39 36 36 34
29 27 29 31 32 34 35 37 39 40 40 43 44 46 48 49 50 52 55 57 60 61 62 63 64 64 63 60 61 60 59 57 56 53 52 51 51 49 46 44 40 39 38
28 29 30 32 34 36 38 40 42 44 45 47 49 51 52 53 55 57 60 64 66 67 68 69 68 66 64 65 64 61 59 60 59 59 57 54 53 55 52 49 45 43 41
32 32 34 35 36 39 42 43 46 49 51 52 52 53 55 57 59 62 64 66 68 70 69 68 66 65 63 63 62 62 61 62 63 61 60 59 59 57 58 53 51 47 49
33 35 36 37 39 41 44 47 50 52 54 55 57 59 61 63 66 69 71 72 71 69 69 69 67 66 66 65 62 60 59 60 63 64 63 61 62 62 60 59 57 54 55
35 36 37 38 42 46 50 53 54 56 58 59 61 63 66 69 72 74 73 70 69 69 69 68 65 63 62 61 60 58 56 55 57 58 60 61 62 64 65 64 62 61 60
36 37 40 44 48 50 52 55 59 60 61 62 64 67 71 72 72 68 67 67 65 64 63 62 62 60 60 60 61 59 56 51 52 55 58 60 59 60 64 68 69 68 65
37 42 46 48 50 52 56 58 60 61 62 64 68 72 71 67 64 62 61 61 61 62 62 60 59 58 57 55 57 60 60 58 56 52 56 59 62 61 60 63 69 72 70
44 47 50 54 55 57 58 60 62 62 63 68 70 64 60 60 60 58 59 60 60 62 62 61 58 56 54 52 51 52 55 59 62 58 54 59 61 66 68 65 65 69 74
48 52 55 58 58 59 60 62 62 63 68 69 61 58 60 59 61 62 62 62 62 61 61 59 57 53 51 50 52 51 51 53 56 58 56 54 56 61 67 72 72 71 71
52 55 57 58 59 60 60 61 63 67 67 62 60 60 60 61 63 62 64 64 64 62 58 54 51 50 51 52 52 51 51 52 54 57 58 56 55 51 54 62 72 76 76
Wind_Direction
317 325 328 324 324 314 307 312 318 323 328 341 348 347 350 347 317 297 284 278 276 278 281 286 288 293 295 299 299 300 301 302 302 304 305 307 308 310 312 312 311 310 310
321 319 324 326 316 321 318 321 321 325 329 331 333 337 336 333 323 317 297 285 283 284 283 283 286 289 292 294 298 299 300 300 301 304 306 307 310 314 316 317 313 311 310
318 321 325 325 314 317 321 320 318 319 319 324 326 327 328 331 328 321 314 308 297 284 280 282 285 286 289 294 297 301 303 305 305 306 309 307 306 311 314 314 315 315 315
316 325 328 325 316 314 313 312 310 308 310 312 314 315 318 318 318 319 317 314 310 307 304 302 302 300 301 302 305 306 305 304 304 304 304 303 308 308 308 310 311 312 316
313 317 322 325 323 314 308 305 304 304 302 301 306 308 308 310 309 307 308 308 309 309 307 308 307 305 305 307 307 305 303 304 303 299 302 304 307 310 310 309 308 309 310
306 314 314 315 316 315 313 306 302 300 301 301 300 299 302 303 304 300 299 298 298 298 299 301 301 300 301 302 303 303 305 307 304 297 296 304 303 308 308 309 307 305 307
305 306 307 309 310 308 307 305 304 302 302 301 300 298 297 293 294 294 293 293 292 293 293 294 295 296 297 298 300 301 299 302 301 300 293 296 302 304 307 306 304 304 307
295 298 304 308 308 306 305 305 305 304 301 298 296 294 294 293 293 293 291 292 288 289 290 290 291 292 294 296 298 300 302 303 300 296 294 296 297 302 302 300 300 301 303
294 297 301 302 304 304 305 305 305 305 306 306 305 303 302 300 299 299 297 296 295 294 294 294 293 294 294 295 295 294 297 301 298 293 290 294 294 302 304 301 299 299 299
290 292 292 299 302 303 301 303 307 311 314 313 311 310 308 307 306 305 304 304 302 300 299 299 300 300 298 298 297 297 295 296 293 293 288 290 294 297 296 298 299 296 295
283 285 287 293 300 304 309 309 307 310 310 311 311 311 312 312 312 311 309 308 306 304 305 304 305 304 303 303 303 301 300 292 290 286 288 294 296 298 295 294 293 295 294
285 284 284 291 300 303 304 303 302 306 308 309 307 307 307 309 309 308 308 307 306 306 304 304 303 304 304 303 302 301 301 305 293 279 283 291 292 296 299 297 293 289 292
289 288 289 292 294 295 297 299 300 305 308 308 308 308 306 307 308 307 307 308 307 308 306 305 304 304 301 299 299 298 297 299 297 301 306 294 291 294 294 292 290 293 286
293 289 287 289 291 294 296 299 302 305 305 305 305 304 304 303 304 304 304 304 304 305 303 304 303 302 300 300 298 296 295 294 293 293 293 291 288 285 285 285 286 289 288
299 296 295 296 298 302 307 308 307 308 308 308 309 308 307 306 305 303 301 299 298 297 298 298 298 298 298 297 296 295 293 291 288 286 286 285 283 281 278 277 280 284 285
301 301 301 300 304 306 307 307 305 304 304 304 305 305 304 303 301 299 297 296 296 295 295 294 294 293 292 291 291 292 291 288 285 283 280 278 278 277 276 271 271 277 279
298 296 296 299 301 303 303 302 302 302 303 303 302 302 301 299 298 297 298 299 299 297 296 295 295 294 291 288 286 285 284 285 285 280 276 274 272 271 272 272 270 270 274
292 291 293 295 298 300 300 301 302 302 300 299 299 297 295 295 295 295 294 295 295 295 294 294 294 292 290 288 285 282 280 278 277 276 274 271 268 268 265 266 266 268 267
288 287 290 293 296 300 301 302 300 298 298 296 294 294 294 293 293 293 294 295 297 297 298 297 295 292 289 286 285 284 283 279 277 274 269 267 266 263 264 261 261 261 261
283 286 290 295 299 301 301 301 300 299 298 297 296 295 296 297 298 299 300 301 301 300 299 298 297 295 292 289 286 283 279 278 276 274 273 267 263 262 261 263 262 261 261
283 287 293 296 298 299 299 299 298 298 297 296 296 298 299 299 300 302 303 302 301 299 298 297 296 293 291 289 287 284 281 276 273 273 271 269 264 259 258 256 257 255 259
284 290 295 297 299 300 301 300 299 298 297 297 298 299 300 301 302 302 302 302 302 302 301 298 296 294 292 289 287 284 279 276 277 275 274 272 268 261 254 253 253 252 252
285 292 297 301 302 301 301 298 297 297 297 299 300 301 302 302 303 303 302 304 304 302 299 297 295 293 292 291 289 287 283 280 277 273 272 271 270 266 261 253 249 249 250
288 294 299 302 302 300 298 298 298 298 299 300 303 302 302 302 303 304 305 304 302 300 297 295 295 295 292 289 287 288 288 286 284 277 272 267 265 267 265 258 253 246 245
292 296 300 301 302 299 298 298 298 298 301 302 300 299 304 305 306 305 304 302 299 299 299 296 294 291 289 288 287 287 288 291 292 290 279 272 267 259 257 259 254 250 245
293 298 299 300 299 296 296 296 296 300 301 300 299 301 303 303 304 303 302 301 300 300 298 294 292 291 290 287 288 288 288 289 288 289 287 284 280 274 262 254 253 250 246